Tracking 17694 objects as of 27-May-2016
HD Live streaming from Space Station
objects crossing your sky now

COSMOS 2251 DEB

Track COSMOS 2251 DEB now!
10-day predictions


NORAD ID: 37120
Int'l Code: 1993-036BGS
Perigee: 735.9 km
Apogee: 816.3 km
Inclination: 74.0 °
Period: 100.2 minutes
Semi major axis: 7147 km
RCS: 0.0125 m2 (small)
Launch date: June 16, 1993
Source: Commonwealth of Independent States (former USSR) (CIS)
Launch site: PLESETSK MISSILE AND SPACE COMPLEX (PKMTR)

Note: This is SATELLITE DEBRIS
Your satellite tracking list
Your tracking list is empty





NASA's NSSDC Master Catalog

Two Line Element Set (TLE):
1 37120U 93036BGS 16132.68298178 +.00002490 +00000-0 +83592-3 0  9991
2 37120 074.0173 262.7916 0056268 079.1335 281.6143 14.36839152331234
Source of the keplerian elements: AFSPC

N2YO: 615